TimeEDT,TemperatureF,Dew PointF,Humidity,Sea Level PressureIn,VisibilityMPH,Wind Direction,Wind SpeedMPH,Gust SpeedMPH,PrecipitationIn,Events,Conditions,WindDirDegrees,DateUTC
12:15 AM,64.4,64.4,100,30.01,2.5,WSW,9.2,16.1,0.05,Rain-Thunderstorm,Heavy Thunderstorms and Rain,240,2013-09-03 04:15:00
12:35 AM,64.4,64.4,100,30.00,7.0,SSW,4.6,-,0.07,Rain-Thunderstorm,Light Thunderstorms and Rain,210,2013-09-03 04:35:00
12:55 AM,64.4,64.4,100,29.98,10.0,Calm,Calm,-,0.07,Rain-Thunderstorm,Light Thunderstorms and Rain,0,2013-09-03 04:55:00
1:15 AM,64.4,64.4,100,29.98,10.0,SW,8.1,-,N/A,Thunderstorm,Overcast,230,2013-09-03 05:15:00
1:35 AM,64.4,64.4,100,29.98,10.0,WSW,5.8,-,N/A,,Scattered Clouds,240,2013-09-03 05:35:00
1:55 AM,64.4,64.4,100,29.98,10.0,WSW,3.5,-,N/A,,Scattered Clouds,240,2013-09-03 05:55:00
2:15 AM,64.4,64.4,100,29.97,7.0,West,4.6,-,N/A,,Scattered Clouds,270,2013-09-03 06:15:00
2:35 AM,64.4,64.4,100,29.98,10.0,SW,4.6,-,N/A,,Scattered Clouds,230,2013-09-03 06:35:00
2:55 AM,64.4,64.4,100,29.98,10.0,Calm,Calm,-,N/A,,Scattered Clouds,0,2013-09-03 06:55:00
3:15 AM,64.4,64.4,100,29.98,10.0,Calm,Calm,-,N/A,,Scattered Clouds,0,2013-09-03 07:15:00
3:35 AM,64.4,64.4,100,29.98,7.0,Calm,Calm,-,N/A,,Scattered Clouds,0,2013-09-03 07:35:00
3:55 AM,64.4,64.4,100,29.98,10.0,West,3.5,-,N/A,,Mostly Cloudy,260,2013-09-03 07:55:00
4:15 AM,64.4,64.4,100,29.98,10.0,Calm,Calm,-,N/A,,Overcast,0,2013-09-03 08:15:00
4:35 AM,64.4,64.4,100,29.98,10.0,WSW,3.5,-,N/A,,Overcast,240,2013-09-03 08:35:00
4:55 AM,64.4,64.4,100,29.98,10.0,Calm,Calm,-,N/A,,Mostly Cloudy,0,2013-09-03 08:55:00
5:15 AM,64.4,64.4,100,29.98,10.0,SW,4.6,-,N/A,,Mostly Cloudy,220,2013-09-03 09:15:00
5:35 AM,62.6,62.6,100,30.00,10.0,SW,5.8,-,N/A,,Mostly Cloudy,230,2013-09-03 09:35:00
5:55 AM,62.6,62.6,100,30.00,10.0,West,3.5,-,N/A,,Scattered Clouds,280,2013-09-03 09:55:00
6:15 AM,64.4,64.4,100,30.00,3.0,West,5.8,-,N/A,,Mostly Cloudy,280,2013-09-03 10:15:00
6:35 AM,64.4,64.4,100,30.00,4.0,West,5.8,-,N/A,,Overcast,270,2013-09-03 10:35:00
6:55 AM,64.4,64.4,100,30.01,2.0,West,4.6,-,N/A,,Mostly Cloudy,270,2013-09-03 10:55:00
7:15 AM,64.4,64.4,100,30.01,2.0,WSW,4.6,-,N/A,,Overcast,240,2013-09-03 11:15:00
7:35 AM,64.4,64.4,100,30.02,3.0,WSW,4.6,-,N/A,,Overcast,240,2013-09-03 11:35:00
7:55 AM,64.4,64.4,100,30.02,2.5,West,4.6,-,N/A,,Overcast,270,2013-09-03 11:55:00
8:15 AM,64.4,64.4,100,30.03,1.8,Calm,Calm,-,N/A,,Overcast,0,2013-09-03 12:15:00
8:35 AM,66.2,66.2,100,30.04,1.8,Calm,Calm,-,N/A,,Overcast,0,2013-09-03 12:35:00
8:55 AM,66.2,66.2,100,30.04,1.8,WNW,3.5,-,N/A,,Overcast,300,2013-09-03 12:55:00
9:15 AM,66.2,66.2,100,30.05,0.8,Calm,Calm,-,N/A,,Light Drizzle,0,2013-09-03 13:15:00
9:35 AM,66.2,66.2,100,30.05,1.8,Calm,Calm,-,N/A,,Overcast,0,2013-09-03 13:35:00
9:55 AM,68.0,68.0,100,30.06,4.0,NNW,3.5,-,N/A,,Overcast,330,2013-09-03 13:55:00
10:15 AM,68.0,68.0,100,30.07,3.0,WNW,3.5,-,N/A,,Overcast,300,2013-09-03 14:15:00
10:35 AM,69.8,69.8,100,30.07,4.0,NNW,5.8,-,0.01,,Overcast,330,2013-09-03 14:35:00
10:55 AM,71.6,69.8,94,30.07,4.0,NW,4.6,-,0.01,,Mostly Cloudy,320,2013-09-03 14:55:00
11:15 AM,73.4,71.6,94,30.07,7.0,NNW,6.9,-,N/A,,Mostly Cloudy,330,2013-09-03 15:15:00
11:35 AM,71.6,71.6,100,30.07,4.0,NW,4.6,-,N/A,,Mostly Cloudy,310,2013-09-03 15:35:00
11:55 AM,73.4,71.6,94,30.08,4.0,NNW,6.9,-,N/A,,Mostly Cloudy,340,2013-09-03 15:55:00
12:15 PM,73.4,71.6,94,30.07,4.0,NW,6.9,-,N/A,,Mostly Cloudy,310,2013-09-03 16:15:00
12:35 PM,73.4,66.2,78,30.07,3.0,NW,10.4,-,N/A,,Haze,310,2013-09-03 16:35:00
12:55 PM,75.2,66.2,73,30.07,10.0,North,10.4,16.1,N/A,,Scattered Clouds,350,2013-09-03 16:55:00
1:15 PM,75.2,64.4,69,30.07,10.0,North,8.1,-,N/A,,Scattered Clouds,350,2013-09-03 17:15:00
1:35 PM,73.4,64.4,73,30.07,10.0,WNW,8.1,-,N/A,,Scattered Clouds,290,2013-09-03 17:35:00
1:55 PM,75.2,64.4,69,30.07,10.0,NNW,6.9,-,N/A,,Scattered Clouds,340,2013-09-03 17:55:00
2:15 PM,73.4,62.6,69,30.07,10.0,NW,12.7,-,N/A,,Scattered Clouds,310,2013-09-03 18:15:00
2:35 PM,75.2,62.6,65,30.07,10.0,NNW,9.2,-,N/A,,Scattered Clouds,340,2013-09-03 18:35:00
2:55 PM,77.0,62.6,61,30.06,10.0,NW,4.6,-,N/A,,Scattered Clouds,320,2013-09-03 18:55:00
3:15 PM,77.0,62.6,61,30.06,10.0,WNW,8.1,-,N/A,,Scattered Clouds,290,2013-09-03 19:15:00
3:35 PM,77.0,62.6,61,30.06,10.0,WNW,9.2,-,N/A,,Scattered Clouds,290,2013-09-03 19:35:00
3:55 PM,77.0,62.6,61,30.05,10.0,NNW,5.8,-,N/A,,Scattered Clouds,330,2013-09-03 19:55:00
4:15 PM,77.0,62.6,61,30.05,10.0,NNW,9.2,-,N/A,,Scattered Clouds,330,2013-09-03 20:15:00
4:35 PM,75.2,60.8,61,30.05,10.0,NW,9.2,-,N/A,,Clear,320,2013-09-03 20:35:00
4:55 PM,75.2,60.8,61,30.05,10.0,NNW,4.6,-,N/A,,Clear,330,2013-09-03 20:55:00
5:15 PM,77.0,60.8,57,30.05,10.0,WNW,9.2,-,N/A,,Clear,290,2013-09-03 21:15:00
5:35 PM,75.2,60.8,61,30.05,10.0,NW,6.9,-,N/A,,Clear,310,2013-09-03 21:35:00
5:55 PM,73.4,60.8,65,30.05,10.0,NW,8.1,-,N/A,,Clear,310,2013-09-03 21:55:00
6:15 PM,73.4,60.8,65,30.06,10.0,NW,5.8,-,N/A,,Clear,310,2013-09-03 22:15:00
6:35 PM,73.4,60.8,65,30.06,10.0,NW,8.1,-,N/A,,Clear,310,2013-09-03 22:35:00
6:55 PM,71.6,60.8,69,30.06,10.0,NW,3.5,-,N/A,,Clear,320,2013-09-03 22:55:00
7:15 PM,71.6,60.8,69,30.06,10.0,NW,4.6,-,N/A,,Clear,320,2013-09-03 23:15:00
7:35 PM,69.8,60.8,73,30.07,10.0,NNW,3.5,-,N/A,,Scattered Clouds,340,2013-09-03 23:35:00
7:55 PM,68.0,60.8,78,30.08,10.0,NNW,3.5,-,N/A,,Clear,330,2013-09-03 23:55:00
8:15 PM,68.0,60.8,78,30.08,10.0,NNW,4.6,-,N/A,,Mostly Cloudy,330,2013-09-04 00:15:00
8:35 PM,66.2,60.8,83,30.09,10.0,NW,3.5,-,N/A,,Mostly Cloudy,320,2013-09-04 00:35:00
8:55 PM,64.4,60.8,88,30.09,10.0,Calm,Calm,-,N/A,,Mostly Cloudy,0,2013-09-04 00:55:00
9:15 PM,64.4,60.8,88,30.10,10.0,Calm,Calm,-,N/A,,Mostly Cloudy,0,2013-09-04 01:15:00
9:35 PM,64.4,60.8,88,30.11,10.0,Calm,Calm,-,N/A,,Mostly Cloudy,0,2013-09-04 01:35:00
9:55 PM,64.4,60.8,88,30.12,10.0,Calm,Calm,-,N/A,,Mostly Cloudy,0,2013-09-04 01:55:00
10:15 PM,62.6,59.0,88,30.13,10.0,Calm,Calm,-,N/A,,Clear,0,2013-09-04 02:15:00
10:35 PM,62.6,59.0,88,30.12,10.0,Calm,Calm,-,N/A,,Clear,0,2013-09-04 02:35:00
10:55 PM,60.8,60.8,100,30.12,10.0,Calm,Calm,-,N/A,,Clear,0,2013-09-04 02:55:00
11:15 PM,60.8,60.8,100,30.14,10.0,Calm,Calm,-,N/A,,Clear,0,2013-09-04 03:15:00
11:35 PM,59.0,59.0,100,30.14,10.0,Calm,Calm,-,N/A,,Clear,0,2013-09-04 03:35:00
11:55 PM,60.8,60.8,100,30.14,10.0,Calm,Calm,-,N/A,,Clear,0,2013-09-04 03:55:00